| time (UTC) | temp F | wind direction | speed knots | gust knots | rain 1hr in | rain 24hr in | rain mn in | humidity % | barometer mb |
| 20260903064034 | 79 | 170 | 2.6 | 3.5 | 0.00 | 0.05 | 0.00 | 75 | 1012.5 |
| 20260903063854 | 80 | 170 | 2.6 | 3.5 | 0.00 | 0.05 | 0.00 | 75 | 1015.5 |
| 20260903063559 | 79 | 170 | 1.7 | 4.3 | 0.00 | 0.05 | 0.00 | 74 | 1012.6 |
| 20260903063322 | 80 | 170 | 1.7 | 4.3 | 0.00 | 0.05 | 0.00 | 74 | 1015.7 |
| 20260903063051 | 79 | 170 | 2.6 | 4.3 | 0.00 | 0.05 | 0.00 | 74 | 1012.7 |
| 20260903062825 | 80 | 170 | 2.6 | 4.3 | 0.00 | 0.05 | 0.00 | 74 | 1015.7 |
| 20260903062536 | 79 | 170 | 1.7 | 3.5 | 0.00 | 0.05 | 0.00 | 74 | 1012.8 |
| 20260903062320 | 80 | 170 | 3.5 | 4.3 | 0.00 | 0.05 | 0.00 | 74 | 1015.8 |
| 20260903062026 | 80 | 149 | 1.7 | 4.3 | 0.00 | 0.05 | 0.00 | 74 | 1012.8 |
| 20260903061820 | 80 | 149 | 1.7 | 5.2 | 0.00 | 0.05 | 0.00 | 74 | 1015.9 |
| 20260903061524 | 80 | 140 | 1.7 | 5.2 | 0.00 | 0.05 | 0.00 | 74 | 1012.7 |
| 20260903061317 | 80 | 140 | 0.9 | 5.2 | 0.00 | 0.05 | 0.00 | 74 | 1015.8 |
| 20260903061002 | 80 | 115 | 1.7 | 4.3 | 0.00 | 0.05 | 0.00 | 74 | 1012.6 |
| 20260903060816 | 80 | 125 | 1.7 | 4.3 | 0.00 | 0.05 | 0.00 | 74 | 1015.8 |
| 20260903060558 | 80 | 104 | 1.7 | 4.3 | 0.00 | 0.05 | 0.00 | 74 | 1012.8 |
| 20260903060314 | 80 | 135 | 2.6 | 4.3 | 0.00 | 0.05 | 0.00 | 74 | 1015.9 |
| 20260903060048 | 80 | 138 | 0.9 | 5.2 | 0.00 | 0.05 | 0.00 | 73 | 1012.8 |
| 20260903055828 | 80 | 133 | 1.7 | 7.0 | 0.00 | 0.05 | 0.00 | 73 | 1015.8 |
| 20260903055517 | 80 | 139 | 0.9 | 7.8 | 0.00 | 0.05 | 0.00 | 73 | 1012.7 |
| 20260903055327 | 81 | 149 | 1.7 | 7.8 | 0.00 | 0.05 | 0.00 | 73 | 1015.7 |
| 20260903055008 | 80 | 133 | 3.5 | 7.8 | 0.00 | 0.05 | 0.00 | 73 | 1012.6 |
| 20260903054824 | 81 | 145 | 3.5 | 6.1 | 0.00 | 0.05 | 0.00 | 73 | 1015.6 |
| 20260903054607 | 80 | 140 | 1.7 | 6.1 | 0.00 | 0.05 | 0.00 | 73 | 1012.7 |
| 20260903054324 | 81 | 130 | 2.6 | 6.1 | 0.00 | 0.05 | 0.00 | 73 | 1015.6 |
| 20260903054052 | 80 | 110 | 1.7 | 6.1 | 0.00 | 0.05 | 0.00 | 72 | 1012.6 |
| 20260903053840 | 81 | 118 | 2.6 | 6.1 | 0.00 | 0.05 | 0.00 | 72 | 1015.8 |
| 20260903053539 | 80 | 108 | 2.6 | 7.8 | 0.00 | 0.05 | 0.00 | 72 | 1012.7 |
| 20260903053331 | 81 | 125 | 1.7 | 7.8 | 0.00 | 0.05 | 0.00 | 72 | 1015.7 |
| 20260903053036 | 81 | 125 | 3.5 | 7.8 | 0.00 | 0.05 | 0.00 | 72 | 1012.6 |
| 20260903052829 | 81 | 173 | 3.5 | 7.0 | 0.00 | 0.05 | 0.00 | 71 | 1015.7 |
| 20260903052514 | 81 | 137 | 1.7 | 7.0 | 0.00 | 0.05 | 0.00 | 71 | 1012.7 |
| 20260903052324 | 81 | 139 | 3.5 | 10.4 | 0.00 | 0.05 | 0.00 | 71 | 1015.8 |
| 20260903052006 | 81 | 113 | 2.6 | 10.4 | 0.00 | 0.05 | 0.00 | 71 | 1012.9 |
| 20260903051821 | 81 | 120 | 2.6 | 10.4 | 0.00 | 0.05 | 0.00 | 71 | 1015.8 |
| 20260903051600 | 81 | 118 | 6.1 | 10.4 | 0.00 | 0.05 | 0.00 | 71 | 1012.7 |
| 20260903051320 | 81 | 119 | 4.3 | 9.6 | 0.00 | 0.05 | 0.00 | 71 | 1015.8 |
| 20260903051054 | 81 | 116 | 2.6 | 8.7 | 0.00 | 0.05 | 0.00 | 70 | 1012.8 |
| 20260903050817 | 82 | 114 | 3.5 | 8.7 | 0.00 | 0.05 | 0.00 | 70 | 1015.7 |
| 20260903050546 | 81 | 106 | 2.6 | 8.7 | 0.00 | 0.05 | 0.00 | 70 | 1012.7 |
| 20260903050353 | 82 | 131 | 3.5 | 8.7 | 0.00 | 0.05 | 0.00 | 70 | 1015.8 |
| 20260903050109 | 81 | 142 | 3.5 | 10.4 | 0.00 | 0.05 | 0.00 | 70 | 1012.7 |
| 20260903045839 | 82 | 143 | 1.7 | 10.4 | 0.00 | 0.05 | 0.05 | 70 | 1015.6 |
| 20260903045542 | 82 | 132 | 4.3 | 10.4 | 0.00 | 0.05 | 0.05 | 70 | 1012.7 |
| 20260903045331 | 82 | 101 | 4.3 | 8.7 | 0.00 | 0.05 | 0.05 | 70 | 1015.7 |
| 20260903045036 | 82 | 116 | 4.3 | 7.8 | 0.00 | 0.05 | 0.05 | 70 | 1012.7 |
| 20260903044830 | 82 | 108 | 3.5 | 7.8 | 0.00 | 0.05 | 0.05 | 69 | 1015.8 |
| 20260903044532 | 82 | 87 | 2.6 | 7.8 | 0.00 | 0.05 | 0.05 | 69 | 1012.7 |
| 20260903044329 | 83 | 101 | 3.5 | 9.6 | 0.00 | 0.05 | 0.05 | 69 | 1015.8 |
| 20260903044016 | 82 | 152 | 2.6 | 9.6 | 0.00 | 0.05 | 0.05 | 69 | 1012.7 |
| 20260903043828 | 83 | 121 | 3.5 | 9.6 | 0.00 | 0.05 | 0.05 | 69 | 1015.7 |
| 20260903043508 | 82 | 96 | 3.5 | 9.6 | 0.00 | 0.05 | 0.05 | 69 | 1012.8 |
| 20260903043329 | 83 | 83 | 2.6 | 7.0 | 0.00 | 0.05 | 0.05 | 68 | 1015.7 |
| 20260903043003 | 83 | 93 | 2.6 | 7.0 | 0.00 | 0.05 | 0.05 | 68 | 1012.6 |
| 20260903042827 | 83 | 105 | 1.7 | 7.0 | 0.00 | 0.05 | 0.05 | 68 | 1015.6 |
| 20260903042559 | 83 | 118 | 1.7 | 7.0 | 0.00 | 0.05 | 0.05 | 68 | 1012.5 |
| 20260903042326 | 83 | 122 | 2.6 | 7.0 | 0.00 | 0.05 | 0.05 | 67 | 1015.5 |
| 20260903042050 | 83 | 39 | 3.5 | 7.8 | 0.00 | 0.05 | 0.05 | 67 | 1012.4 |
| 20260903041845 | 84 | 105 | 2.6 | 7.8 | 0.00 | 0.05 | 0.05 | 67 | 1015.5 |
| 20260903041525 | 83 | 88 | 2.6 | 7.8 | 0.00 | 0.05 | 0.05 | 67 | 1012.5 |
| 20260903041323 | 84 | 53 | 2.6 | 7.8 | 0.00 | 0.05 | 0.05 | 66 | 1015.6 |
| 20260903041006 | 84 | 83 | 1.7 | 9.6 | 0.00 | 0.05 | 0.05 | 66 | 1012.6 |
| 20260903040821 | 84 | 110 | 3.5 | 9.6 | 0.00 | 0.05 | 0.05 | 66 | 1015.6 |
| 20260903040538 | 84 | 75 | 4.3 | 9.6 | 0.00 | 0.05 | 0.05 | 66 | 1012.6 |
| 20260903040322 | 84 | 33 | 5.2 | 9.6 | 0.00 | 0.05 | 0.05 | 66 | 1015.6 |
| 20260903040032 | 84 | 64 | 5.2 | 10.4 | 0.00 | 0.05 | 0.05 | 65 | 1012.6 |
| 20260903035820 | 85 | 108 | 4.3 | 10.4 | 0.00 | 0.05 | 0.05 | 65 | 1015.6 |
| 20260903035526 | 84 | 114 | 3.5 | 10.4 | 0.00 | 0.05 | 0.05 | 64 | 1012.6 |
| 20260903035319 | 85 | 133 | 5.2 | 11.3 | 0.00 | 0.05 | 0.05 | 64 | 1015.6 |
| 20260903035021 | 84 | 100 | 4.3 | 11.3 | 0.00 | 0.05 | 0.05 | 64 | 1012.7 |
| 20260903034820 | 85 | 112 | 5.2 | 11.3 | 0.00 | 0.05 | 0.05 | 64 | 1015.7 |
| 20260903034507 | 85 | 69 | 4.3 | 11.3 | 0.00 | 0.05 | 0.05 | 63 | 1012.6 |
| 20260903034320 | 85 | 48 | 3.5 | 11.3 | 0.00 | 0.05 | 0.05 | 63 | 1015.6 |
| 20260903034058 | 85 | 96 | 4.3 | 11.3 | 0.00 | 0.05 | 0.05 | 63 | 1012.6 |
| 20260903033820 | 85 | 69 | 5.2 | 11.3 | 0.00 | 0.05 | 0.05 | 63 | 1015.6 |
| 20260903033552 | 85 | 79 | 4.3 | 9.6 | 0.00 | 0.05 | 0.05 | 63 | 1012.6 |
| 20260903033338 | 85 | 97 | 5.2 | 8.7 | 0.00 | 0.05 | 0.05 | 63 | 1015.6 |
| 20260903033038 | 85 | 147 | 3.5 | 9.6 | 0.00 | 0.05 | 0.05 | 63 | 1012.5 |
| 20260903032831 | 85 | 103 | 3.5 | 9.6 | 0.00 | 0.05 | 0.05 | 63 | 1015.6 |
| 20260903032535 | 85 | 82 | 3.5 | 13.9 | 0.00 | 0.05 | 0.05 | 63 | 1012.4 |
| 20260903032331 | 85 | 43 | 5.2 | 13.9 | 0.00 | 0.05 | 0.05 | 63 | 1015.6 |
| 20260903032028 | 85 | 90 | 5.2 | 13.9 | 0.00 | 0.05 | 0.05 | 62 | 1012.4 |
| 20260903031830 | 85 | 119 | 7.8 | 13.9 | 0.00 | 0.05 | 0.05 | 62 | 1015.5 |
| 20260903031508 | 84 | 112 | 2.6 | 7.0 | 0.00 | 0.05 | 0.05 | 64 | 1012.3 |
| 20260903031328 | 85 | 85 | 2.6 | 7.0 | 0.00 | 0.05 | 0.05 | 64 | 1015.4 |
| 20260903031000 | 84 | 110 | 0.0 | 1.7 | 0.00 | 0.05 | 0.05 | 64 | 1012.0 |
| 20260903030847 | 85 | 110 | 0.9 | 1.7 | 0.00 | 0.05 | 0.05 | 64 | 1015.0 |
| 20260903030532 | 84 | 110 | 0.0 | 0.9 | 0.00 | 0.05 | 0.05 | 65 | 1012.0 |
| 20260903030343 | 85 | 110 | 0.0 | 0.9 | 0.00 | 0.05 | 0.05 | 64 | 1014.9 |
| 20260903030119 | 84 | 110 | 0.0 | 0.9 | 0.00 | 0.05 | 0.05 | 64 | 1011.8 |
| 20260903025841 | 85 | 110 | 0.0 | 0.9 | 0.00 | 0.05 | 0.05 | 64 | 1014.9 |
| 20260903025526 | 84 | 110 | 0.0 | 0.9 | 0.00 | 0.05 | 0.05 | 64 | 1011.7 |
| 20260903025338 | 85 | 110 | 0.0 | 0.9 | 0.00 | 0.05 | 0.05 | 64 | 1014.8 |
| 20260903025052 | 85 | 110 | 0.0 | 0.9 | 0.00 | 0.05 | 0.05 | 64 | 1011.6 |
| 20260903024816 | 85 | 110 | 0.0 | 0.9 | 0.00 | 0.05 | 0.05 | 64 | 1014.8 |
| 20260903024546 | 85 | 110 | 0.0 | 0.9 | 0.00 | 0.05 | 0.05 | 64 | 1011.5 |
| 20260903024315 | 85 | 110 | 0.0 | 1.7 | 0.00 | 0.05 | 0.05 | 64 | 1014.7 |
| 20260903024040 | 85 | 110 | 0.0 | 1.7 | 0.00 | 0.05 | 0.05 | 65 | 1011.5 |
| 20260903023814 | 85 | 110 | 0.0 | 1.7 | 0.00 | 0.05 | 0.05 | 64 | 1014.6 |
| 20260903023537 | 85 | 110 | 0.9 | 1.7 | 0.00 | 0.05 | 0.05 | 63 | 1011.5 |
| 20260903023350 | 86 | 110 | 0.9 | 1.7 | 0.00 | 0.05 | 0.05 | 64 | 1014.6 |
| 20260903023057 | 85 | 111 | 0.0 | 0.9 | 0.00 | 0.05 | 0.05 | 64 | 1011.5 |
| 20260903022829 | 86 | 110 | 0.0 | 0.9 | 0.00 | 0.05 | 0.05 | 67 | 1014.5 |
| 20260903022549 | 85 | 111 | 0.0 | 0.0 | 0.00 | 0.05 | 0.05 | 65 | 1011.3 |
| 20260903022350 | 86 | 110 | 0.0 | 0.0 | 0.00 | 0.05 | 0.05 | 64 | 1014.4 |
| 20260903022008 | 86 | 110 | 0.0 | 0.9 | 0.00 | 0.05 | 0.05 | 63 | 1011.3 |
| 20260903021830 | 86 | 110 | 0.0 | 0.9 | 0.00 | 0.05 | 0.05 | 63 | 1014.3 |
| 20260903021506 | 86 | 110 | 0.0 | 0.9 | 0.00 | 0.05 | 0.05 | 65 | 1011.1 |
| 20260903021350 | 86 | 110 | 0.0 | 0.9 | 0.00 | 0.05 | 0.05 | 65 | 1014.2 |
| 20260903021033 | 86 | 110 | 0.0 | 0.9 | 0.00 | 0.05 | 0.05 | 63 | 1011.1 |
| 20260903020846 | 86 | 110 | 0.0 | 0.9 | 0.00 | 0.05 | 0.05 | 62 | 1014.2 |
| 20260903020558 | 86 | 110 | 0.0 | 1.7 | 0.00 | 0.05 | 0.05 | 63 | 1011.1 |
| 20260903020324 | 86 | 110 | 0.0 | 1.7 | 0.00 | 0.05 | 0.05 | 62 | 1014.2 |
| 20260903020105 | 86 | 110 | 0.0 | 1.7 | 0.00 | 0.05 | 0.05 | 62 | 1011.0 |
| 20260903015822 | 86 | 110 | 0.9 | 1.7 | 0.00 | 0.05 | 0.05 | 62 | 1014.2 |
| 20260903015554 | 86 | 110 | 0.0 | 1.7 | 0.00 | 0.05 | 0.05 | 62 | 1011.0 |
| 20260903015319 | 87 | 110 | 0.0 | 1.7 | 0.00 | 0.05 | 0.05 | 61 | 1014.1 |
| 20260903015050 | 86 | 110 | 0.0 | 1.7 | 0.00 | 0.05 | 0.05 | 62 | 1010.9 |
| 20260903014814 | 87 | 110 | 0.0 | 2.6 | 0.00 | 0.05 | 0.05 | 62 | 1014.1 |
| 20260903014520 | 87 | 110 | 0.0 | 2.6 | 0.00 | 0.05 | 0.05 | 62 | 1011.0 |
| 20260903014331 | 88 | 110 | 0.0 | 2.6 | 0.00 | 0.05 | 0.05 | 63 | 1014.0 |
| 20260903014004 | 87 | 110 | 0.9 | 2.6 | 0.00 | 0.05 | 0.05 | 63 | 1011.0 |
| 20260903013828 | 88 | 110 | 0.9 | 1.7 | 0.00 | 0.05 | 0.05 | 63 | 1014.0 |
| 20260903013556 | 87 | 110 | 0.0 | 0.9 | 0.00 | 0.05 | 0.05 | 62 | 1011.0 |
| 20260903013345 | 88 | 110 | 0.0 | 0.9 | 0.00 | 0.05 | 0.05 | 62 | 1013.9 |
| 20260903013026 | 88 | 110 | 0.0 | 0.9 | 0.00 | 0.05 | 0.05 | 61 | 1011.0 |
| 20260903012819 | 88 | 110 | 0.0 | 0.9 | 0.00 | 0.05 | 0.05 | 60 | 1014.0 |
| 20260903012551 | 88 | 110 | 0.0 | 0.0 | 0.00 | 0.05 | 0.05 | 59 | 1010.9 |
| 20260903012317 | 89 | 110 | 0.0 | 0.0 | 0.00 | 0.05 | 0.05 | 60 | 1014.0 |
| 20260903012042 | 88 | 110 | 0.0 | 0.0 | 0.00 | 0.05 | 0.05 | 60 | 1010.9 |
| 20260903011814 | 89 | 110 | 0.0 | 0.0 | 0.00 | 0.05 | 0.05 | 58 | 1013.9 |
| 20260903011537 | 88 | 110 | 0.0 | 0.0 | 0.00 | 0.05 | 0.05 | 57 | 1010.8 |
| 20260903011332 | 89 | 111 | 0.0 | 0.0 | 0.00 | 0.05 | 0.05 | 57 | 1013.8 |
| 20260903011015 | 89 | 110 | 0.0 | 0.0 | 0.00 | 0.05 | 0.05 | 56 | 1010.6 |
| 20260903010850 | 89 | 110 | 0.0 | 0.0 | 0.00 | 0.05 | 0.05 | 57 | 1013.7 |
| 20260903010545 | 89 | 110 | 0.0 | 0.0 | 0.00 | 0.05 | 0.05 | 57 | 1010.7 |
| 20260903010328 | 90 | 110 | 0.0 | 0.0 | 0.00 | 0.05 | 0.05 | 56 | 1013.7 |
| 20260903010039 | 89 | 110 | 0.0 | 0.0 | 0.00 | 0.05 | 0.05 | 55 | 1010.7 |
| 20260903005824 | 90 | 110 | 0.0 | 0.0 | 0.00 | 0.05 | 0.05 | 58 | 1013.9 |
| 20260903005530 | 90 | 110 | 0.0 | 0.0 | 0.00 | 0.05 | 0.05 | 58 | 1010.7 |
| 20260903005342 | 90 | 110 | 0.0 | 0.0 | 0.00 | 0.05 | 0.05 | 59 | 1013.9 |
| 20260903005051 | 89 | 110 | 0.0 | 0.0 | 0.00 | 0.05 | 0.05 | 56 | 1010.7 |
| 20260903004818 | 90 | 110 | 0.0 | 0.0 | 0.00 | 0.05 | 0.05 | 56 | 1013.8 |
| 20260903004542 | 89 | 110 | 0.0 | 0.0 | 0.00 | 0.05 | 0.05 | 55 | 1010.6 |
| 20260903004315 | 90 | 110 | 0.0 | 0.0 | 0.00 | 0.05 | 0.05 | 55 | 1013.8 |
| 20260903004034 | 89 | 111 | 0.0 | 0.0 | 0.00 | 0.05 | 0.05 | 55 | 1010.7 |
| 20260903003833 | 90 | 104 | 0.0 | 0.0 | 0.00 | 0.05 | 0.05 | 55 | 1013.8 |
| 20260903003515 | 89 | 105 | 0.0 | 0.0 | 0.02 | 0.05 | 0.05 | 55 | 1010.7 |
| 20260903003329 | 90 | 145 | 0.0 | 0.0 | 0.02 | 0.05 | 0.05 | 55 | 1013.8 |
| 20260903003008 | 89 | 102 | 0.0 | 0.0 | 0.02 | 0.05 | 0.05 | 55 | 1010.6 |
| 20260903002829 | 90 | 98 | 0.0 | 0.0 | 0.02 | 0.05 | 0.05 | 55 | 1013.7 |
| 20260903002600 | 89 | 143 | 0.0 | 0.0 | 0.05 | 0.05 | 0.05 | 56 | 1010.6 |
| 20260903002326 | 89 | 113 | 0.0 | 0.0 | 0.05 | 0.05 | 0.05 | 56 | 1013.7 |
| 20260903002050 | 89 | 112 | 0.0 | 0.0 | 0.05 | 0.05 | 0.05 | 56 | 1010.6 |
| 20260903001820 | 89 | 114 | 0.0 | 0.0 | 0.05 | 0.05 | 0.05 | 57 | 1013.7 |
| 20260903001520 | 88 | 114 | 0.0 | 0.0 | 0.05 | 0.05 | 0.05 | 58 | 1010.6 |
| 20260903001316 | 89 | 129 | 0.0 | 0.0 | 0.05 | 0.05 | 0.05 | 59 | 1013.8 |
| 20260903001002 | 88 | 102 | 0.0 | 0.0 | 0.05 | 0.05 | 0.05 | 60 | 1010.7 |
| 20260903000813 | 88 | 120 | 0.0 | 0.0 | 0.05 | 0.05 | 0.05 | 61 | 1013.8 |
| 20260903000556 | 88 | 110 | 0.0 | 0.0 | 0.05 | 0.05 | 0.05 | 60 | 1010.7 |
| 20260903000332 | 88 | 168 | 0.0 | 0.0 | 0.05 | 0.05 | 0.05 | 61 | 1013.7 |
| 20260903000055 | 88 | 168 | 0.0 | 0.0 | 0.05 | 0.05 | 0.05 | 62 | 1010.7 |
| 20260902235830 | 88 | 168 | 0.0 | 0.0 | 0.05 | 0.05 | 0.05 | 61 | 1013.7 |
| 20260902235540 | 88 | 169 | 0.0 | 0.0 | 0.05 | 0.05 | 0.05 | 59 | 1010.5 |
| 20260902235326 | 88 | 165 | 0.0 | 0.0 | 0.05 | 0.05 | 0.05 | 58 | 1013.8 |
| 20260902235029 | 88 | 176 | 0.0 | 8.7 | 0.05 | 0.05 | 0.05 | 57 | 1010.6 |
| 20260902234826 | 89 | 168 | 0.0 | 8.7 | 0.05 | 0.05 | 0.05 | 55 | 1013.8 |
| 20260902234514 | 88 | 155 | 0.0 | 8.7 | 0.05 | 0.05 | 0.05 | 54 | 1010.6 |
| 20260902234323 | 88 | 130 | 1.7 | 8.7 | 0.05 | 0.05 | 0.05 | 54 | 1013.7 |
| 20260902234010 | 88 | 108 | 4.3 | 7.0 | 0.05 | 0.05 | 0.05 | 51 | 1010.6 |
| 20260902233820 | 88 | 91 | 1.7 | 5.2 | 0.04 | 0.04 | 0.04 | 50 | 1013.9 |
| 20260902233558 | 88 | 230 | 0.9 | 3.5 | 0.03 | 0.03 | 0.03 | 50 | 1010.9 |
| 20260902233318 | 90 | 342 | 0.0 | 0.0 | 0.03 | 0.03 | 0.03 | 51 | 1014.2 |
| 20260902233054 | 92 | 317 | 0.0 | 0.0 | 0.03 | 0.03 | 0.03 | 50 | 1011.2 |
| 20260902232815 | 95 | 299 | 0.0 | 0.0 | 0.02 | 0.02 | 0.02 | 47 | 1014.2 |
| 20260902232539 | 95 | 242 | 0.0 | 0.0 | 0.00 | 0.00 | 0.00 | 45 | 1010.9 |
| 20260902232333 | 95 | 160 | 0.0 | 0.0 | 0.00 | 0.00 | 0.00 | 45 | 1013.8 |
| 20260902232033 | 95 | 198 | 0.0 | 0.0 | 0.00 | 0.00 | 0.00 | 43 | 1010.7 |
| 20260902231851 | 96 | 181 | 0.0 | 0.0 | 0.00 | 0.00 | 0.00 | 43 | 1013.7 |
| 20260902231556 | 95 | 143 | 0.0 | 0.0 | 0.00 | 0.00 | 0.00 | 41 | 1010.6 |
| 20260902231326 | 96 | 131 | 0.0 | 0.0 | 0.00 | 0.00 | 0.00 | 41 | 1013.6 |
| 20260902231044 | 96 | 152 | 0.0 | 0.0 | 0.00 | 0.00 | 0.00 | 41 | 1010.6 |
| 20260902230824 | 96 | 142 | 0.0 | 0.0 | 0.00 | 0.00 | 0.00 | 41 | 1013.7 |
| 20260902230535 | 96 | 110 | 0.0 | 0.0 | 0.00 | 0.00 | 0.00 | 41 | 1010.5 |
| 20260902230324 | 96 | 129 | 0.0 | 0.0 | 0.00 | 0.00 | 0.00 | 41 | 1013.7 |
| 20260902230028 | 96 | 149 | 0.0 | 0.0 | 0.00 | 0.00 | 0.00 | 41 | 1010.6 |
| 20260902225821 | 96 | 113 | 0.0 | 0.0 | 0.00 | 0.00 | 0.00 | 41 | 1013.7 |
| 20260902225527 | 96 | 118 | 0.0 | 0.0 | 0.00 | 0.00 | 0.00 | 41 | 1010.6 |
| 20260902225320 | 96 | 109 | 0.0 | 6.1 | 0.00 | 0.00 | 0.00 | 41 | 1013.7 |
| 20260902225028 | 96 | 110 | 0.0 | 7.0 | 0.00 | 0.00 | 0.00 | 41 | 1010.7 |
| 20260902224819 | 97 | 81 | 0.0 | 7.0 | 0.00 | 0.00 | 0.00 | 40 | 1013.7 |
| 20260902224522 | 97 | 129 | 2.6 | 7.0 | 0.00 | 0.00 | 0.00 | 40 | 1010.6 |
| 20260902224318 | 97 | 91 | 2.6 | 5.2 | 0.00 | 0.00 | 0.00 | 40 | 1013.6 |
| 20260902224020 | 97 | 354 | 0.0 | 3.5 | 0.00 | 0.00 | 0.00 | 40 | 1010.6 |
| 20260902223817 | 97 | 187 | 0.0 | 5.2 | 0.00 | 0.00 | 0.00 | 40 | 1013.6 |
| 20260902223502 | 97 | 74 | 0.0 | 5.2 | 0.00 | 0.00 | 0.00 | 39 | 1010.5 |
| 20260902223315 | 98 | 90 | 0.0 | 5.2 | 0.00 | 0.00 | 0.00 | 39 | 1013.7 |
| 20260902223056 | 97 | 112 | 2.6 | 5.2 | 0.00 | 0.00 | 0.00 | 40 | 1010.5 |
| 20260902222851 | 98 | 31 | 3.5 | 6.1 | 0.00 | 0.00 | 0.00 | 40 | 1013.6 |
| 20260902222531 | 97 | 113 | 2.6 | 6.1 | 0.00 | 0.00 | 0.00 | 39 | 1010.5 |
| 20260902222330 | 98 | 91 | 2.6 | 6.1 | 0.00 | 0.00 | 0.00 | 40 | 1013.6 |
| 20260902222017 | 97 | 62 | 0.0 | 0.0 | 0.00 | 0.00 | 0.00 | 40 | 1010.6 |
| 20260902221830 | 98 | 75 | 0.0 | 0.0 | 0.00 | 0.00 | 0.00 | 40 | 1013.8 |
| 20260902221518 | 97 | 324 | 0.0 | 0.0 | 0.00 | 0.00 | 0.00 | 40 | 1010.6 |
| 20260902221326 | 98 | 251 | 0.0 | 0.0 | 0.00 | 0.00 | 0.00 | 40 | 1013.8 |
| 20260902221002 | 97 | 287 | 0.0 | 0.0 | 0.00 | 0.00 | 0.00 | 40 | 1010.7 |
| 20260902220846 | 98 | 40 | 0.0 | 2.6 | 0.00 | 0.00 | 0.00 | 39 | 1013.9 |
| 20260902220539 | 97 | 8 | 0.0 | 2.6 | 0.00 | 0.00 | 0.00 | 40 | 1010.8 |
| 20260902220323 | 98 | 328 | 0.0 | 2.6 | 0.00 | 0.00 | 0.00 | 40 | 1013.8 |
| 20260902220028 | 97 | 28 | 0.0 | 2.6 | 0.00 | 0.00 | 0.00 | 40 | 1010.8 |
| 20260902215839 | 98 | 318 | 0.0 | 0.0 | 0.00 | 0.00 | 0.00 | 41 | 1013.8 |
| 20260902215516 | 97 | 241 | 0.0 | 0.0 | 0.00 | 0.00 | 0.00 | 41 | 1010.7 |
| 20260902215329 | 97 | 256 | 0.0 | 0.0 | 0.00 | 0.00 | 0.00 | 41 | 1013.8 |
| 20260902215059 | 97 | 206 | 0.0 | 0.0 | 0.00 | 0.00 | 0.00 | 40 | 1010.7 |
| 20260902214827 | 97 | 206 | 0.0 | 0.0 | 0.00 | 0.00 | 0.00 | 40 | 1013.9 |
| 20260902214553 | 96 | 228 | 0.0 | 0.0 | 0.00 | 0.00 | 0.00 | 40 | 1010.8 |
| 20260902214325 | 97 | 220 | 0.0 | 0.0 | 0.00 | 0.00 | 0.00 | 40 | 1013.9 |
| 20260902214048 | 96 | 243 | 0.0 | 6.1 | 0.00 | 0.00 | 0.00 | 40 | 1010.9 |
| 20260902213823 | 97 | 244 | 0.0 | 7.0 | 0.00 | 0.00 | 0.00 | 40 | 1014.0 |
| 20260902213540 | 96 | 256 | 0.0 | 11.3 | 0.00 | 0.00 | 0.00 | 41 | 1010.9 |
| 20260902213321 | 97 | 262 | 4.3 | 11.3 | 0.00 | 0.00 | 0.00 | 41 | 1014.0 |
| 20260902213034 | 96 | 266 | 4.3 | 11.3 | 0.00 | 0.00 | 0.00 | 42 | 1010.9 |
| 20260902212838 | 97 | 276 | 4.3 | 11.3 | 0.00 | 0.00 | 0.00 | 42 | 1014.0 |
| 20260902212520 | 96 | 205 | 0.0 | 6.1 | 0.00 | 0.00 | 0.00 | 42 | 1010.9 |
| 20260902212330 | 96 | 205 | 0.9 | 6.1 | 0.00 | 0.00 | 0.00 | 42 | 1014.1 |
| 20260902212004 | 96 | 216 | 2.6 | 5.2 | 0.00 | 0.00 | 0.00 | 42 | 1011.0 |
| 20260902211827 | 96 | 225 | 1.7 | 5.2 | 0.00 | 0.00 | 0.00 | 43 | 1014.1 |
| 20260902211559 | 95 | 88 | 0.0 | 2.6 | 0.00 | 0.00 | 0.00 | 43 | 1011.0 |
| 20260902211325 | 96 | 181 | 0.0 | 0.0 | 0.00 | 0.00 | 0.00 | 43 | 1014.1 |
| 20260902211053 | 95 | 270 | 0.0 | 0.0 | 0.00 | 0.00 | 0.00 | 43 | 1011.1 |
| 20260902210823 | 95 | 284 | 0.0 | 0.0 | 0.00 | 0.00 | 0.00 | 44 | 1014.1 |
| 20260902210543 | 94 | 304 | 0.0 | 0.0 | 0.00 | 0.00 | 0.00 | 44 | 1011.2 |
| 20260902210322 | 95 | 306 | 0.0 | 0.0 | 0.00 | 0.00 | 0.00 | 44 | 1014.3 |
| 20260902210033 | 94 | 306 | 0.0 | 0.0 | 0.00 | 0.00 | 0.00 | 45 | 1011.3 |
| 20260902205820 | 95 | 306 | 0.0 | 0.0 | 0.00 | 0.00 | 0.00 | 45 | 1014.3 |
| 20260902205523 | 94 | 306 | 0.0 | 0.0 | 0.00 | 0.00 | 0.00 | 45 | 1011.4 |
| 20260902205316 | 94 | 306 | 0.0 | 0.0 | 0.00 | 0.00 | 0.00 | 45 | 1014.5 |
| 20260902205016 | 94 | 106 | 0.0 | 0.0 | 0.00 | 0.00 | 0.00 | 45 | 1011.5 |
| 20260902204833 | 94 | 105 | 0.0 | 0.0 | 0.00 | 0.00 | 0.00 | 45 | 1014.6 |
| 20260902204614 | 94 | 98 | 0.0 | 0.0 | 0.00 | 0.00 | 0.00 | 45 | 1011.5 |
| 20260902204332 | 94 | 230 | 0.0 | 0.0 | 0.00 | 0.00 | 0.00 | 46 | 1014.6 |
| 20260902204054 | 93 | 231 | 0.0 | 0.0 | 0.00 | 0.00 | 0.00 | 45 | 1011.6 |
| 20260902203830 | 94 | 231 | 0.0 | 0.0 | 0.00 | 0.00 | 0.00 | 45 | 1014.7 |
| 20260902203545 | 93 | 216 | 0.0 | 0.0 | 0.00 | 0.00 | 0.00 | 46 | 1011.7 |
| 20260902203329 | 94 | 258 | 0.0 | 0.0 | 0.00 | 0.00 | 0.00 | 46 | 1014.8 |
| 20260902203037 | 93 | 283 | 0.0 | 0.0 | 0.00 | 0.00 | 0.00 | 46 | 1011.8 |
| 20260902202829 | 94 | 270 | 0.0 | 0.0 | 0.00 | 0.00 | 0.00 | 46 | 1014.7 |
| 20260902202528 | 94 | 277 | 0.0 | 0.0 | 0.00 | 0.00 | 0.00 | 46 | 1011.8 |
| 20260902202326 | 94 | 250 | 0.0 | 0.0 | 0.00 | 0.00 | 0.00 | 45 | 1014.9 |
| 20260902202012 | 94 | 316 | 0.0 | 0.0 | 0.00 | 0.00 | 0.00 | 45 | 1011.9 |
| 20260902201826 | 94 | 331 | 0.0 | 0.0 | 0.00 | 0.00 | 0.00 | 45 | 1015.0 |
| 20260902201601 | 94 | 328 | 0.0 | 0.0 | 0.00 | 0.00 | 0.00 | 45 | 1012.0 |
| 20260902201325 | 94 | 45 | 0.0 | 0.0 | 0.00 | 0.00 | 0.00 | 45 | 1015.1 |
| 20260902201053 | 94 | 12 | 0.0 | 0.0 | 0.00 | 0.00 | 0.00 | 45 | 1012.0 |
| 20260902200823 | 94 | 101 | 0.0 | 0.0 | 0.00 | 0.00 | 0.00 | 45 | 1015.0 |
| 20260902200546 | 94 | 62 | 0.0 | 0.0 | 0.00 | 0.00 | 0.00 | 46 | 1012.1 |
| 20260902200321 | 94 | 4 | 0.0 | 0.0 | 0.00 | 0.00 | 0.00 | 45 | 1015.1 |
| 20260902200039 | 94 | 48 | 0.0 | 0.0 | 0.00 | 0.00 | 0.00 | 45 | 1012.1 |
| 20260902195818 | 95 | 79 | 0.0 | 0.0 | 0.00 | 0.00 | 0.00 | 45 | 1015.3 |
| 20260902195532 | 94 | 359 | 0.0 | 0.0 | 0.00 | 0.00 | 0.00 | 45 | 1012.4 |
| 20260902195336 | 95 | 359 | 0.0 | 0.0 | 0.00 | 0.00 | 0.00 | 45 | 1015.4 |
| 20260902195057 | 94 | 39 | 0.0 | 0.0 | 0.00 | 0.00 | 0.00 | 45 | 1012.3 |
| 20260902194833 | 95 | 58 | 0.0 | 0.0 | 0.00 | 0.00 | 0.00 | 44 | 1015.3 |
| 20260902194559 | 94 | 22 | 0.0 | 0.0 | 0.00 | 0.00 | 0.00 | 44 | 1012.3 |
| 20260902194351 | 95 | 4 | 0.0 | 0.0 | 0.00 | 0.00 | 0.00 | 43 | 1015.3 |
| 20260902194031 | 94 | 128 | 0.0 | 0.0 | 0.00 | 0.00 | 0.00 | 43 | 1012.3 |
| 20260902193827 | 95 | 21 | 0.0 | 0.0 | 0.00 | 0.00 | 0.00 | 43 | 1015.4 |
| 20260902193523 | 95 | 17 | 0.0 | 0.0 | 0.00 | 0.00 | 0.00 | 43 | 1012.3 |
| 20260902193324 | 95 | 340 | 0.0 | 0.0 | 0.00 | 0.00 | 0.00 | 43 | 1015.5 |
| 20260902193005 | 95 | 4 | 0.0 | 0.0 | 0.00 | 0.00 | 0.00 | 43 | 1012.5 |
| 20260902192821 | 96 | 310 | 0.0 | 0.0 | 0.00 | 0.00 | 0.00 | 43 | 1015.6 |
| 20260902192557 | 95 | 301 | 0.0 | 0.0 | 0.00 | 0.00 | 0.00 | 42 | 1012.6 |
| 20260902192353 | 96 | 359 | 0.0 | 0.0 | 0.00 | 0.00 | 0.00 | 42 | 1015.7 |
| 20260902192017 | 96 | 332 | 0.0 | 0.0 | 0.00 | 0.00 | 0.00 | 42 | 1012.5 |
| 20260902191830 | 97 | 285 | 0.0 | 3.5 | 0.00 | 0.00 | 0.00 | 42 | 1015.6 |
| 20260902191514 | 97 | 318 | 0.0 | 3.5 | 0.00 | 0.00 | 0.00 | 42 | 1012.6 |
| 20260902191327 | 97 | 308 | 0.0 | 3.5 | 0.00 | 0.00 | 0.00 | 42 | 1015.8 |
| 20260902191101 | 96 | 305 | 0.0 | 3.5 | 0.00 | 0.00 | 0.00 | 43 | 1012.7 |
| 20260902190824 | 97 | 359 | 0.0 | 0.0 | 0.00 | 0.00 | 0.00 | 43 | 1015.9 |
| 20260902190554 | 96 | 359 | 0.0 | 0.0 | 0.00 | 0.00 | 0.00 | 43 | 1012.8 |
| 20260902190322 | 96 | 152 | 0.0 | 0.0 | 0.00 | 0.00 | 0.00 | 43 | 1016.0 |
| 20260902190041 | 95 | 136 | 0.0 | 0.0 | 0.00 | 0.00 | 0.00 | 44 | 1012.9 |
| 20260902185819 | 95 | 88 | 0.0 | 0.0 | 0.00 | 0.00 | 0.00 | 44 | 1016.0 |
| 20260902185533 | 95 | 265 | 0.0 | 0.0 | 0.00 | 0.00 | 0.00 | 44 | 1012.9 |
| 20260902185319 | 95 | 272 | 0.0 | 0.0 | 0.00 | 0.00 | 0.00 | 44 | 1016.0 |
| 20260902185023 | 95 | 158 | 0.0 | 0.0 | 0.00 | 0.00 | 0.00 | 44 | 1012.9 |
| 20260902184814 | 95 | 121 | 0.0 | 0.0 | 0.00 | 0.00 | 0.00 | 44 | 1016.0 |
| 20260902184506 | 95 | 25 | 0.0 | 0.0 | 0.00 | 0.00 | 0.00 | 44 | 1013.0 |
| 20260902184352 | 95 | 125 | 0.0 | 0.0 | 0.00 | 0.00 | 0.00 | 45 | 1016.1 |
| 20260902184037 | 94 | 168 | 0.0 | 0.0 | 0.00 | 0.00 | 0.00 | 45 | 1013.2 |
| 20260902183850 | 94 | 72 | 0.0 | 0.0 | 0.00 | 0.00 | 0.00 | 45 | 1016.3 |
| 20260902183601 | 94 | 75 | 0.0 | 0.0 | 0.00 | 0.00 | 0.00 | 46 | 1013.4 |
| 20260902183328 | 94 | 94 | 0.0 | 0.0 | 0.00 | 0.00 | 0.00 | 46 | 1016.5 |
| 20260902183127 | 93 | 161 | 0.0 | 0.0 | 0.00 | 0.00 | 0.00 | 46 | 1013.4 |
| 20260902182825 | 93 | 160 | 0.0 | 0.0 | 0.00 | 0.00 | 0.00 | 46 | 1016.5 |
| 20260902182543 | 93 | 316 | 0.0 | 0.0 | 0.00 | 0.00 | 0.00 | 46 | 1013.5 |
| 20260902182322 | 94 | 304 | 0.0 | 0.0 | 0.00 | 0.00 | 0.00 | 46 | 1016.6 |
| 20260902182033 | 93 | 297 | 0.0 | 0.0 | 0.00 | 0.00 | 0.00 | 46 | 1013.6 |
| 20260902181840 | 94 | 343 | 0.0 | 0.0 | 0.00 | 0.00 | 0.00 | 45 | 1016.7 |
| 20260902181519 | 94 | 261 | 0.0 | 0.0 | 0.00 | 0.00 | 0.00 | 45 | 1013.7 |
| 20260902181330 | 95 | 297 | 0.0 | 0.0 | 0.00 | 0.00 | 0.00 | 46 | 1016.8 |
| 20260902181003 | 94 | 341 | 0.0 | 0.0 | 0.00 | 0.00 | 0.00 | 46 | 1013.7 |
| 20260902180827 | 95 | 299 | 0.0 | 0.0 | 0.00 | 0.00 | 0.00 | 46 | 1016.8 |
| 20260902180555 | 94 | 305 | 0.0 | 0.0 | 0.00 | 0.00 | 0.00 | 47 | 1013.7 |
| 20260902180344 | 94 | 125 | 0.0 | 0.0 | 0.00 | 0.00 | 0.00 | 47 | 1016.9 |
| 20260902180025 | 93 | 184 | 0.0 | 0.0 | 0.00 | 0.00 | 0.00 | 48 | 1013.9 |
| 20260902175821 | 94 | 89 | 0.0 | 0.0 | 0.00 | 0.00 | 0.00 | 47 | 1016.9 |
| 20260902175523 | 93 | 93 | 0.0 | 0.0 | 0.00 | 0.00 | 0.00 | 48 | 1013.9 |
| 20260902175338 | 94 | 134 | 0.0 | 0.0 | 0.00 | 0.00 | 0.00 | 48 | 1017.0 |
| 20260902175040 | 93 | 199 | 0.0 | 0.0 | 0.00 | 0.00 | 0.00 | 49 | 1014.2 |
| 20260902174835 | 93 | 68 | 0.0 | 0.0 | 0.00 | 0.00 | 0.00 | 49 | 1017.3 |
| 20260902174503 | 92 | 15 | 0.0 | 0.0 | 0.00 | 0.00 | 0.00 | 49 | 1014.4 |
| 20260902174331 | 93 | 224 | 0.0 | 0.0 | 0.00 | 0.00 | 0.00 | 49 | 1017.4 |
| 20260902174057 | 92 | 224 | 0.0 | 0.0 | 0.00 | 0.00 | 0.00 | 49 | 1014.5 |
| 20260902173850 | 92 | 224 | 0.0 | 0.0 | 0.00 | 0.00 | 0.00 | 50 | 1017.5 |
| 20260902173527 | 92 | 187 | 0.0 | 0.0 | 0.00 | 0.00 | 0.00 | 50 | 1014.5 |
| 20260902173326 | 92 | 50 | 0.0 | 0.0 | 0.00 | 0.00 | 0.00 | 49 | 1017.5 |
| 20260902173009 | 92 | 214 | 0.0 | 0.0 | 0.00 | 0.00 | 0.00 | 49 | 1014.5 |
| 20260902172824 | 93 | 243 | 0.0 | 0.0 | 0.00 | 0.00 | 0.00 | 50 | 1017.5 |
| 20260902172601 | 92 | 228 | 0.0 | 0.0 | 0.00 | 0.00 | 0.00 | 51 | 1014.4 |
| 20260902172322 | 92 | 214 | 0.0 | 0.0 | 0.00 | 0.00 | 0.00 | 50 | 1017.4 |
| 20260902172051 | 91 | 243 | 0.0 | 0.0 | 0.00 | 0.00 | 0.00 | 51 | 1014.5 |
| 20260902171819 | 92 | 354 | 0.0 | 0.0 | 0.00 | 0.00 | 0.00 | 50 | 1017.5 |
| 20260902171544 | 91 | 320 | 0.0 | 0.0 | 0.00 | 0.00 | 0.00 | 51 | 1014.5 |
| 20260902171316 | 92 | 263 | 0.0 | 0.0 | 0.00 | 0.00 | 0.00 | 51 | 1017.6 |
| 20260902171035 | 91 | 347 | 0.0 | 0.0 | 0.00 | 0.00 | 0.00 | 51 | 1014.6 |
| 20260902170814 | 92 | 56 | 0.0 | 0.0 | 0.00 | 0.00 | 0.00 | 51 | 1017.6 |
| 20260902170515 | 91 | 13 | 0.0 | 0.0 | 0.00 | 0.00 | 0.00 | 51 | 1014.5 |
| 20260902170332 | 92 | 354 | 0.0 | 0.0 | 0.00 | 0.00 | 0.00 | 52 | 1017.6 |
| 20260902170005 | 91 | 268 | 0.0 | 0.0 | 0.00 | 0.00 | 0.00 | 52 | 1014.7 |
| 20260902165830 | 91 | 265 | 0.0 | 0.0 | 0.00 | 0.00 | 0.00 | 52 | 1017.7 |
| 20260902165558 | 91 | 265 | 0.0 | 0.0 | 0.00 | 0.00 | 0.00 | 52 | 1014.7 |
| 20260902165327 | 91 | 249 | 0.0 | 0.0 | 0.00 | 0.00 | 0.00 | 53 | 1017.7 |
| 20260902165050 | 91 | 252 | 0.0 | 0.0 | 0.00 | 0.00 | 0.00 | 53 | 1014.8 |
| 20260902164826 | 91 | 262 | 0.0 | 0.0 | 0.00 | 0.00 | 0.00 | 54 | 1017.8 |
| 20260902164555 | 90 | 228 | 0.0 | 0.0 | 0.00 | 0.00 | 0.00 | 54 | 1014.9 |
| 20260902164323 | 91 | 269 | 0.0 | 0.0 | 0.00 | 0.00 | 0.00 | 54 | 1018.0 |
| 20260902164035 | 90 | 303 | 0.0 | 0.0 | 0.00 | 0.00 | 0.00 | 55 | 1015.1 |
| 20260902163820 | 90 | 327 | 0.0 | 0.0 | 0.00 | 0.00 | 0.00 | 55 | 1018.1 |
| 20260902163535 | 90 | 284 | 0.0 | 0.0 | 0.00 | 0.00 | 0.00 | 54 | 1015.1 |
| 20260902163319 | 90 | 278 | 0.0 | 0.0 | 0.00 | 0.00 | 0.00 | 55 | 1018.2 |
| 20260902163032 | 90 | 276 | 0.0 | 0.0 | 0.00 | 0.00 | 0.00 | 55 | 1015.2 |
| 20260902162818 | 90 | 272 | 0.0 | 0.0 | 0.00 | 0.00 | 0.00 | 56 | 1018.3 |
| 20260902162526 | 89 | 212 | 0.0 | 0.0 | 0.00 | 0.00 | 0.00 | 55 | 1015.1 |
| 20260902162315 | 90 | 223 | 0.0 | 0.0 | 0.00 | 0.00 | 0.00 | 56 | 1018.2 |
| 20260902162051 | 89 | 216 | 0.0 | 0.0 | 0.00 | 0.00 | 0.00 | 57 | 1015.1 |
| 20260902161827 | 90 | 269 | 0.0 | 0.0 | 0.00 | 0.00 | 0.00 | 57 | 1018.2 |
| 20260902161543 | 89 | 258 | 0.0 | 0.0 | 0.00 | 0.00 | 0.00 | 57 | 1015.0 |
| 20260902161324 | 89 | 278 | 0.0 | 0.0 | 0.00 | 0.00 | 0.00 | 58 | 1018.3 |
| 20260902161034 | 89 | 246 | 0.0 | 0.0 | 0.00 | 0.00 | 0.00 | 58 | 1015.1 |
| 20260902160822 | 89 | 284 | 0.0 | 0.0 | 0.00 | 0.00 | 0.00 | 58 | 1018.2 |
| 20260902160529 | 88 | 242 | 0.0 | 0.0 | 0.00 | 0.00 | 0.00 | 59 | 1015.2 |
| 20260902160319 | 89 | 290 | 0.0 | 0.0 | 0.00 | 0.00 | 0.00 | 59 | 1018.2 |
| 20260902160020 | 88 | 249 | 0.0 | 0.0 | 0.00 | 0.00 | 0.00 | 60 | 1015.1 |
| 20260902155817 | 88 | 257 | 0.0 | 0.0 | 0.00 | 0.00 | 0.00 | 60 | 1018.3 |
| 20260902155514 | 88 | 295 | 0.0 | 0.0 | 0.00 | 0.00 | 0.00 | 60 | 1015.2 |
| 20260902155333 | 88 | 309 | 0.0 | 0.0 | 0.00 | 0.00 | 0.00 | 60 | 1018.2 |
| 20260902155037 | 88 | 315 | 0.0 | 0.0 | 0.00 | 0.00 | 0.00 | 61 | 1015.2 |
| 20260902154850 | 88 | 296 | 0.0 | 0.0 | 0.00 | 0.00 | 0.00 | 62 | 1018.3 |
| 20260902154501 | 87 | 262 | 0.0 | 0.0 | 0.00 | 0.00 | 0.00 | 63 | 1015.1 |
| 20260902154327 | 88 | 275 | 0.0 | 0.0 | 0.00 | 0.00 | 0.00 | 63 | 1018.3 |
| 20260902154058 | 87 | 274 | 0.0 | 0.0 | 0.00 | 0.00 | 0.00 | 63 | 1015.2 |
| 20260902153823 | 87 | 260 | 0.0 | 0.0 | 0.00 | 0.00 | 0.00 | 64 | 1018.2 |
| 20260902153549 | 86 | 230 | 0.0 | 0.0 | 0.00 | 0.00 | 0.00 | 63 | 1015.1 |
| 20260902153321 | 87 | 227 | 0.0 | 0.0 | 0.00 | 0.00 | 0.00 | 64 | 1018.2 |
| 20260902153041 | 86 | 264 | 0.0 | 0.0 | 0.00 | 0.00 | 0.00 | 64 | 1015.1 |
| 20260902152838 | 86 | 271 | 0.0 | 0.0 | 0.00 | 0.00 | 0.00 | 64 | 1018.2 |
| 20260902152528 | 86 | 287 | 0.0 | 0.0 | 0.00 | 0.00 | 0.00 | 65 | 1015.1 |
| 20260902152327 | 86 | 280 | 0.0 | 0.0 | 0.00 | 0.00 | 0.00 | 65 | 1018.1 |
| 20260902152053 | 86 | 263 | 0.0 | 0.0 | 0.00 | 0.00 | 0.00 | 65 | 1015.2 |
| 20260902151825 | 86 | 263 | 0.0 | 0.0 | 0.00 | 0.00 | 0.00 | 65 | 1018.2 |
| 20260902151548 | 85 | 197 | 0.0 | 0.0 | 0.00 | 0.00 | 0.00 | 65 | 1015.1 |
| 20260902151322 | 86 | 231 | 0.0 | 0.0 | 0.00 | 0.00 | 0.00 | 66 | 1018.3 |
| 20260902151040 | 85 | 224 | 0.0 | 0.0 | 0.00 | 0.00 | 0.00 | 66 | 1015.2 |
| 20260902150819 | 86 | 253 | 0.0 | 0.0 | 0.00 | 0.00 | 0.00 | 66 | 1018.3 |
| 20260902150533 | 85 | 262 | 0.0 | 0.0 | 0.00 | 0.00 | 0.00 | 66 | 1015.2 |
| 20260902150338 | 85 | 251 | 0.0 | 0.0 | 0.00 | 0.00 | 0.00 | 67 | 1018.3 |
| 20260902150021 | 85 | 220 | 0.0 | 0.0 | 0.00 | 0.00 | 0.00 | 66 | 1015.2 |
| 20260902145830 | 85 | 237 | 0.0 | 0.0 | 0.00 | 0.00 | 0.00 | 67 | 1018.3 |
| 20260902145505 | 84 | 231 | 0.0 | 0.0 | 0.00 | 0.00 | 0.00 | 67 | 1015.2 |
| 20260902145329 | 85 | 224 | 0.0 | 0.0 | 0.00 | 0.00 | 0.00 | 69 | 1018.3 |
| 20260902145056 | 84 | 222 | 0.0 | 0.0 | 0.00 | 0.00 | 0.00 | 69 | 1015.2 |
| 20260902144825 | 84 | 256 | 0.0 | 0.0 | 0.00 | 0.00 | 0.00 | 69 | 1018.3 |
| 20260902144600 | 84 | 218 | 0.0 | 0.0 | 0.00 | 0.00 | 0.00 | 69 | 1015.3 |
| 20260902144321 | 84 | 261 | 0.0 | 0.0 | 0.00 | 0.00 | 0.00 | 69 | 1018.3 |
| 20260902144043 | 83 | 214 | 0.0 | 0.0 | 0.00 | 0.00 | 0.00 | 70 | 1015.2 |
| 20260902143817 | 83 | 249 | 0.0 | 0.0 | 0.00 | 0.00 | 0.00 | 71 | 1018.3 |
| 20260902143533 | 83 | 251 | 0.0 | 0.0 | 0.00 | 0.00 | 0.00 | 71 | 1015.2 |
| 20260902143333 | 83 | 267 | 0.0 | 0.0 | 0.00 | 0.00 | 0.00 | 71 | 1018.2 |
| 20260902143015 | 82 | 272 | 0.0 | 0.0 | 0.00 | 0.00 | 0.00 | 72 | 1015.2 |
| 20260902142830 | 82 | 204 | 0.0 | 0.0 | 0.00 | 0.00 | 0.00 | 72 | 1018.2 |
| 20260902142547 | 81 | 210 | 0.0 | 0.0 | 0.00 | 0.00 | 0.00 | 74 | 1015.3 |
| 20260902142327 | 82 | 87 | 0.0 | 0.0 | 0.00 | 0.00 | 0.00 | 74 | 1018.3 |
| 20260902142039 | 81 | 86 | 0.0 | 0.0 | 0.00 | 0.00 | 0.00 | 75 | 1015.3 |
| 20260902141828 | 82 | 87 | 0.0 | 0.0 | 0.00 | 0.00 | 0.00 | 75 | 1018.3 |
| 20260902141535 | 81 | 86 | 0.0 | 0.0 | 0.00 | 0.00 | 0.00 | 76 | 1015.3 |
| 20260902141324 | 81 | 87 | 0.0 | 0.0 | 0.00 | 0.00 | 0.00 | 76 | 1018.3 |
| 20260902141053 | 81 | 87 | 0.0 | 0.0 | 0.00 | 0.00 | 0.00 | 76 | 1015.3 |
| 20260902140820 | 81 | 86 | 0.0 | 0.0 | 0.00 | 0.00 | 0.00 | 77 | 1018.2 |
| 20260902140547 | 80 | 86 | 0.0 | 0.0 | 0.00 | 0.00 | 0.00 | 77 | 1015.3 |
| 20260902140319 | 80 | 87 | 0.0 | 0.0 | 0.00 | 0.00 | 0.00 | 77 | 1018.2 |
| 20260902140040 | 80 | 87 | 0.0 | 0.0 | 0.00 | 0.00 | 0.00 | 77 | 1015.3 |
| 20260902135837 | 80 | 31 | 0.0 | 0.0 | 0.00 | 0.00 | 0.00 | 78 | 1018.2 |
| 20260902135603 | 79 | 31 | 0.0 | 0.0 | 0.00 | 0.00 | 0.00 | 78 | 1015.3 |
| 20260902135333 | 80 | 31 | 0.0 | 0.0 | 0.00 | 0.00 | 0.00 | 78 | 1018.2 |
| 20260902135053 | 79 | 23 | 0.0 | 0.0 | 0.00 | 0.00 | 0.00 | 78 | 1015.2 |
| 20260902134831 | 79 | 140 | 0.0 | 0.0 | 0.00 | 0.00 | 0.00 | 79 | 1018.1 |
| 20260902134548 | 79 | 140 | 0.0 | 0.0 | 0.00 | 0.00 | 0.00 | 79 | 1015.2 |
| 20260902134330 | 79 | 141 | 0.0 | 0.0 | 0.00 | 0.00 | 0.00 | 80 | 1018.1 |
| 20260902134044 | 78 | 140 | 0.0 | 0.0 | 0.00 | 0.00 | 0.00 | 81 | 1015.1 |
| 20260902133848 | 78 | 139 | 0.0 | 0.0 | 0.00 | 0.00 | 0.00 | 81 | 1018.0 |
| 20260902133507 | 77 | 140 | 0.0 | 0.0 | 0.00 | 0.00 | 0.00 | 82 | 1015.1 |
| 20260902133325 | 77 | 140 | 0.0 | 0.0 | 0.00 | 0.00 | 0.00 | 82 | 1018.0 |
| 20260902133103 | 76 | 140 | 0.0 | 0.0 | 0.00 | 0.00 | 0.00 | 83 | 1015.1 |
| 20260902132822 | 76 | 140 | 0.0 | 0.0 | 0.00 | 0.00 | 0.00 | 83 | 1018.0 |
| 20260902132557 | 75 | 140 | 0.0 | 0.0 | 0.00 | 0.00 | 0.00 | 83 | 1015.0 |
| 20260902132319 | 75 | 141 | 0.0 | 0.0 | 0.00 | 0.00 | 0.00 | 83 | 1018.0 |
| 20260902132046 | 74 | 141 | 0.0 | 0.0 | 0.00 | 0.00 | 0.00 | 83 | 1015.0 |
| 20260902131817 | 75 | 140 | 0.0 | 0.9 | 0.00 | 0.00 | 0.00 | 83 | 1017.9 |
| 20260902131550 | 74 | 140 | 0.0 | 0.9 | 0.00 | 0.00 | 0.00 | 83 | 1014.9 |
| 20260902131314 | 74 | 141 | 0.0 | 0.9 | 0.00 | 0.00 | 0.00 | 83 | 1017.9 |
| 20260902131031 | 74 | 140 | 0.0 | 0.9 | 0.00 | 0.00 | 0.00 | 84 | 1014.9 |
| 20260902130829 | 74 | 141 | 0.0 | 0.0 | 0.00 | 0.00 | 0.00 | 84 | 1017.9 |
| 20260902130513 | 73 | 140 | 0.0 | 0.0 | 0.00 | 0.00 | 0.00 | 83 | 1014.9 |
| 20260902130325 | 74 | 140 | 0.0 | 0.0 | 0.00 | 0.00 | 0.00 | 84 | 1017.9 |
| 20260902130008 | 73 | 140 | 0.0 | 0.0 | 0.00 | 0.00 | 0.00 | 84 | 1014.9 |
| 20260902125822 | 73 | 140 | 0.0 | 0.0 | 0.00 | 0.00 | 0.00 | 84 | 1017.8 |
| 20260902125556 | 72 | 140 | 0.0 | 0.0 | 0.00 | 0.00 | 0.00 | 84 | 1014.9 |
| 20260902125340 | 73 | 140 | 0.0 | 0.0 | 0.00 | 0.00 | 0.00 | 84 | 1017.8 |
| 20260902125045 | 72 | 140 | 0.0 | 0.0 | 0.00 | 0.00 | 0.00 | 83 | 1014.8 |
| 20260902124831 | 72 | 141 | 0.0 | 0.0 | 0.00 | 0.00 | 0.00 | 83 | 1017.6 |
| 20260902124535 | 72 | 141 | 0.0 | 0.0 | 0.00 | 0.00 | 0.00 | 83 | 1014.7 |
| 20260902124350 | 72 | 140 | 0.0 | 0.0 | 0.00 | 0.00 | 0.00 | 83 | 1017.4 |
| 20260902124102 | 72 | 141 | 0.0 | 0.0 | 0.00 | 0.00 | 0.00 | 83 | 1014.5 |
| 20260902123829 | 72 | 141 | 0.0 | 0.0 | 0.00 | 0.00 | 0.00 | 83 | 1017.4 |
| 20260902123548 | 71 | 140 | 0.0 | 0.0 | 0.00 | 0.00 | 0.00 | 83 | 1014.5 |
| 20260902123325 | 72 | 141 | 0.0 | 0.0 | 0.00 | 0.00 | 0.00 | 83 | 1017.3 |
| 20260902123039 | 71 | 141 | 0.0 | 0.0 | 0.00 | 0.00 | 0.00 | 83 | 1014.4 |
| 20260902122823 | 72 | 141 | 0.0 | 0.0 | 0.00 | 0.00 | 0.00 | 82 | 1017.2 |
| 20260902122529 | 71 | 141 | 0.0 | 1.7 | 0.00 | 0.00 | 0.00 | 82 | 1014.4 |
| 20260902122320 | 72 | 141 | 0.0 | 1.7 | 0.00 | 0.00 | 0.00 | 82 | 1017.3 |
| 20260902122021 | 71 | 141 | 0.0 | 1.7 | 0.00 | 0.00 | 0.00 | 82 | 1014.4 |
| 20260902121818 | 72 | 141 | 0.9 | 1.7 | 0.00 | 0.00 | 0.00 | 82 | 1017.2 |
| 20260902121506 | 72 | 141 | 0.9 | 1.7 | 0.00 | 0.00 | 0.00 | 82 | 1014.4 |
| 20260902121316 | 72 | 140 | 0.9 | 1.7 | 0.00 | 0.00 | 0.00 | 82 | 1017.4 |
| 20260902121058 | 72 | 139 | 0.9 | 1.7 | 0.00 | 0.00 | 0.00 | 82 | 1014.5 |
| 20260902120814 | 72 | 139 | 0.0 | 1.7 | 0.00 | 0.00 | 0.00 | 82 | 1017.4 |
| 20260902120552 | 72 | 139 | 0.9 | 1.7 | 0.00 | 0.00 | 0.00 | 82 | 1014.3 |
| 20260902120331 | 72 | 139 | 0.9 | 1.7 | 0.00 | 0.00 | 0.00 | 82 | 1017.2 |
| 20260902120041 | 72 | 139 | 0.0 | 1.7 | 0.00 | 0.00 | 0.00 | 82 | 1014.4 |
| 20260902115830 | 72 | 139 | 0.9 | 1.7 | 0.00 | 0.00 | 0.00 | 82 | 1017.3 |
| 20260902115534 | 72 | 139 | 0.9 | 1.7 | 0.00 | 0.00 | 0.00 | 82 | 1014.4 |
| 20260902115330 | 72 | 139 | 0.9 | 1.7 | 0.00 | 0.00 | 0.00 | 82 | 1017.3 |
| 20260902115015 | 72 | 138 | 0.9 | 1.7 | 0.00 | 0.00 | 0.00 | 81 | 1014.5 |
| 20260902114828 | 72 | 138 | 0.9 | 1.7 | 0.00 | 0.00 | 0.00 | 81 | 1017.3 |
| 20260902114511 | 72 | 138 | 0.9 | 1.7 | 0.00 | 0.00 | 0.00 | 81 | 1014.5 |
| 20260902114324 | 73 | 137 | 0.9 | 1.7 | 0.00 | 0.00 | 0.00 | 81 | 1017.4 |
| 20260902114103 | 72 | 138 | 0.0 | 1.7 | 0.00 | 0.00 | 0.00 | 81 | 1014.6 |
| 20260902113823 | 73 | 138 | 0.9 | 1.7 | 0.00 | 0.00 | 0.00 | 81 | 1017.4 |
| 20260902113550 | 72 | 138 | 0.0 | 1.7 | 0.00 | 0.00 | 0.00 | 81 | 1014.5 |
| 20260902113340 | 73 | 138 | 0.9 | 1.7 | 0.00 | 0.00 | 0.00 | 81 | 1017.3 |
| 20260902113038 | 72 | 138 | 0.9 | 1.7 | 0.00 | 0.00 | 0.00 | 81 | 1014.4 |
| 20260902112831 | 73 | 138 | 0.9 | 1.7 | 0.00 | 0.00 | 0.00 | 81 | 1017.3 |
| 20260902112531 | 72 | 138 | 0.0 | 0.0 | 0.00 | 0.00 | 0.00 | 81 | 1014.4 |
| 20260902112329 | 73 | 138 | 0.0 | 0.0 | 0.00 | 0.00 | 0.00 | 81 | 1017.4 |
| 20260902112011 | 72 | 138 | 0.0 | 0.9 | 0.00 | 0.00 | 0.00 | 81 | 1014.5 |
| 20260902111829 | 73 | 138 | 0.0 | 1.7 | 0.00 | 0.00 | 0.00 | 80 | 1017.4 |
| 20260902111502 | 72 | 138 | 0.0 | 1.7 | 0.00 | 0.00 | 0.00 | 80 | 1014.5 |
| 20260902111345 | 73 | 138 | 0.0 | 1.7 | 0.00 | 0.00 | 0.00 | 81 | 1017.3 |
| 20260902111033 | 72 | 139 | 0.9 | 1.7 | 0.00 | 0.00 | 0.00 | 81 | 1014.4 |
| 20260902110822 | 73 | 139 | 0.9 | 1.7 | 0.00 | 0.00 | 0.00 | 81 | 1017.2 |
| 20260902110527 | 72 | 138 | 0.9 | 1.7 | 0.00 | 0.00 | 0.00 | 81 | 1014.3 |
| 20260902110320 | 73 | 139 | 0.9 | 1.7 | 0.00 | 0.00 | 0.00 | 80 | 1017.2 |
| 20260902110032 | 72 | 138 | 0.0 | 0.9 | 0.00 | 0.00 | 0.00 | 80 | 1014.2 |
| 20260902105817 | 73 | 138 | 0.0 | 0.0 | 0.00 | 0.00 | 0.00 | 80 | 1017.1 |
| 20260902105501 | 72 | 138 | 0.0 | 0.9 | 0.00 | 0.00 | 0.00 | 80 | 1014.2 |
| 20260902105314 | 73 | 137 | 0.0 | 0.9 | 0.00 | 0.00 | 0.00 | 80 | 1017.1 |
| 20260902105055 | 73 | 139 | 0.0 | 0.9 | 0.00 | 0.00 | 0.00 | 80 | 1014.3 |
| 20260902104831 | 73 | 138 | 0.9 | 0.9 | 0.00 | 0.00 | 0.00 | 80 | 1017.2 |
| 20260902104545 | 73 | 138 | 0.0 | 0.9 | 0.00 | 0.00 | 0.00 | 80 | 1014.3 |
| 20260902104349 | 73 | 138 | 0.0 | 0.9 | 0.00 | 0.00 | 0.00 | 80 | 1017.2 |
| 20260902104012 | 73 | 138 | 0.0 | 0.0 | 0.00 | 0.00 | 0.00 | 80 | 1014.3 |
| 20260902103824 | 73 | 138 | 0.0 | 0.0 | 0.00 | 0.00 | 0.00 | 79 | 1017.2 |
| 20260902103508 | 73 | 139 | 0.0 | 0.0 | 0.00 | 0.00 | 0.00 | 79 | 1014.2 |
| 20260902103322 | 73 | 138 | 0.0 | 0.0 | 0.00 | 0.00 | 0.00 | 79 | 1017.1 |
| 20260902103004 | 73 | 138 | 0.0 | 0.0 | 0.00 | 0.00 | 0.00 | 79 | 1014.2 |
| 20260902102839 | 73 | 138 | 0.0 | 0.9 | 0.00 | 0.00 | 0.00 | 79 | 1017.0 |
| 20260902102554 | 73 | 138 | 0.0 | 0.9 | 0.00 | 0.00 | 0.00 | 79 | 1014.3 |
| 20260902102329 | 73 | 138 | 0.0 | 0.9 | 0.00 | 0.00 | 0.00 | 79 | 1017.2 |
| 20260902102047 | 73 | 139 | 0.0 | 1.7 | 0.00 | 0.00 | 0.00 | 79 | 1014.3 |
| 20260902101825 | 73 | 138 | 0.0 | 1.7 | 0.00 | 0.00 | 0.00 | 79 | 1017.2 |
| 20260902101547 | 73 | 138 | 0.0 | 1.7 | 0.00 | 0.00 | 0.00 | 79 | 1014.4 |
| 20260902101323 | 74 | 138 | 0.0 | 2.6 | 0.00 | 0.00 | 0.00 | 79 | 1017.3 |
| 20260902101037 | 73 | 138 | 0.0 | 2.6 | 0.00 | 0.00 | 0.00 | 79 | 1014.4 |
| 20260902100840 | 74 | 138 | 0.9 | 2.6 | 0.00 | 0.00 | 0.00 | 79 | 1017.4 |
| 20260902100600 | 73 | 138 | 0.9 | 2.6 | 0.00 | 0.00 | 0.00 | 79 | 1014.5 |
| 20260902100315 | 74 | 138 | 0.9 | 1.7 | 0.00 | 0.00 | 0.00 | 79 | 1017.4 |
| 20260902100052 | 73 | 138 | 0.0 | 0.9 | 0.00 | 0.00 | 0.00 | 79 | 1014.4 |
| 20260902095832 | 74 | 138 | 0.0 | 0.0 | 0.00 | 0.00 | 0.00 | 78 | 1017.2 |
| 20260902095545 | 73 | 138 | 0.0 | 1.7 | 0.00 | 0.00 | 0.00 | 78 | 1014.3 |
| 20260902095328 | 74 | 138 | 0.0 | 1.7 | 0.00 | 0.00 | 0.00 | 78 | 1017.0 |
| 20260902095038 | 73 | 138 | 0.0 | 1.7 | 0.00 | 0.00 | 0.00 | 78 | 1014.2 |
| 20260902094823 | 74 | 138 | 0.9 | 1.7 | 0.00 | 0.00 | 0.00 | 78 | 1017.1 |
| 20260902094530 | 73 | 138 | 0.9 | 1.7 | 0.00 | 0.00 | 0.00 | 78 | 1014.3 |
| 20260902094319 | 74 | 137 | 0.0 | 0.0 | 0.00 | 0.00 | 0.00 | 78 | 1017.3 |
| 20260902094026 | 74 | 138 | 0.0 | 0.0 | 0.00 | 0.00 | 0.00 | 78 | 1014.3 |
| 20260902093816 | 74 | 138 | 0.0 | 0.0 | 0.00 | 0.00 | 0.00 | 78 | 1017.4 |
| 20260902093508 | 74 | 139 | 0.0 | 0.0 | 0.00 | 0.00 | 0.00 | 78 | 1014.4 |
| 20260902093353 | 74 | 139 | 0.0 | 0.9 | 0.00 | 0.00 | 0.00 | 78 | 1017.3 |
| 20260902093042 | 74 | 139 | 0.0 | 0.9 | 0.00 | 0.00 | 0.00 | 77 | 1014.5 |
| 20260902092829 | 74 | 138 | 0.0 | 2.6 | 0.00 | 0.00 | 0.00 | 77 | 1017.4 |
| 20260902092532 | 74 | 138 | 0.0 | 2.6 | 0.00 | 0.00 | 0.00 | 77 | 1014.6 |
| 20260902092329 | 74 | 138 | 0.0 | 2.6 | 0.00 | 0.00 | 0.00 | 77 | 1017.5 |
| 20260902092026 | 74 | 138 | 0.9 | 2.6 | 0.00 | 0.00 | 0.00 | 77 | 1014.6 |
| 20260902091829 | 74 | 138 | 0.9 | 1.7 | 0.00 | 0.00 | 0.00 | 77 | 1017.5 |
| 20260902091509 | 74 | 138 | 0.0 | 0.9 | 0.00 | 0.00 | 0.00 | 77 | 1014.6 |
| 20260902091327 | 74 | 138 | 0.0 | 0.9 | 0.00 | 0.00 | 0.00 | 76 | 1017.5 |
| 20260902091100 | 74 | 138 | 0.0 | 0.9 | 0.00 | 0.00 | 0.00 | 76 | 1014.6 |
| 20260902090824 | 75 | 138 | 0.0 | 0.9 | 0.00 | 0.00 | 0.00 | 76 | 1017.5 |
| 20260902090554 | 74 | 138 | 0.0 | 0.9 | 0.00 | 0.00 | 0.00 | 76 | 1014.6 |
| 20260902090322 | 75 | 138 | 0.0 | 0.9 | 0.00 | 0.00 | 0.00 | 76 | 1017.5 |
| 20260902090044 | 74 | 139 | 0.0 | 0.9 | 0.00 | 0.00 | 0.00 | 76 | 1014.6 |
| 20260902085820 | 75 | 138 | 0.0 | 0.9 | 0.00 | 0.00 | 0.00 | 76 | 1017.5 |
| 20260902085541 | 74 | 139 | 0.0 | 0.9 | 0.00 | 0.00 | 0.00 | 76 | 1014.6 |
| 20260902085320 | 75 | 139 | 0.0 | 0.9 | 0.00 | 0.00 | 0.00 | 76 | 1017.5 |
| 20260902085032 | 74 | 138 | 0.0 | 0.9 | 0.00 | 0.00 | 0.00 | 76 | 1014.5 |
| 20260902084818 | 75 | 138 | 0.0 | 0.9 | 0.00 | 0.00 | 0.00 | 76 | 1017.4 |
| 20260902084527 | 75 | 138 | 0.0 | 0.0 | 0.00 | 0.00 | 0.00 | 75 | 1014.6 |
| 20260902084315 | 75 | 139 | 0.0 | 0.0 | 0.00 | 0.00 | 0.00 | 75 | 1017.4 |
| 20260902084018 | 75 | 139 | 0.0 | 0.0 | 0.00 | 0.00 | 0.00 | 75 | 1014.6 |
| 20260902083828 | 75 | 138 | 0.0 | 0.9 | 0.00 | 0.00 | 0.00 | 75 | 1017.5 |
| 20260902083504 | 75 | 139 | 0.0 | 2.6 | 0.00 | 0.00 | 0.00 | 75 | 1014.6 |
| 20260902083325 | 76 | 138 | 0.0 | 2.6 | 0.00 | 0.00 | 0.00 | 74 | 1017.5 |
| 20260902083058 | 75 | 139 | 0.9 | 2.6 | 0.00 | 0.00 | 0.00 | 74 | 1014.6 |
| 20260902082822 | 76 | 138 | 1.7 | 2.6 | 0.00 | 0.00 | 0.00 | 74 | 1017.5 |
| 20260902082551 | 76 | 138 | 0.0 | 0.0 | 0.00 | 0.00 | 0.00 | 74 | 1014.6 |
| 20260902082319 | 76 | 138 | 0.0 | 0.0 | 0.00 | 0.00 | 0.00 | 74 | 1017.5 |
| 20260902082044 | 76 | 138 | 0.0 | 0.0 | 0.00 | 0.00 | 0.00 | 74 | 1014.7 |
| 20260902081818 | 76 | 138 | 0.0 | 0.0 | 0.00 | 0.00 | 0.00 | 74 | 1017.6 |
| 20260902081543 | 76 | 138 | 0.0 | 0.0 | 0.00 | 0.00 | 0.00 | 74 | 1014.7 |
| 20260902081317 | 76 | 138 | 0.0 | 0.0 | 0.00 | 0.00 | 0.00 | 74 | 1017.6 |
| 20260902081028 | 76 | 138 | 0.0 | 0.0 | 0.00 | 0.00 | 0.00 | 74 | 1014.7 |
| 20260902080817 | 76 | 138 | 0.0 | 0.0 | 0.00 | 0.00 | 0.00 | 74 | 1017.6 |
| 20260902080518 | 76 | 138 | 0.0 | 0.0 | 0.00 | 0.00 | 0.00 | 73 | 1014.7 |
| 20260902080315 | 76 | 138 | 0.0 | 0.0 | 0.00 | 0.00 | 0.00 | 73 | 1017.6 |
| 20260902080023 | 76 | 138 | 0.0 | 0.0 | 0.00 | 0.00 | 0.00 | 73 | 1014.6 |
| 20260902075813 | 76 | 138 | 0.0 | 0.0 | 0.00 | 0.00 | 0.00 | 73 | 1017.7 |
| 20260902075558 | 76 | 138 | 0.0 | 0.0 | 0.00 | 0.00 | 0.00 | 73 | 1014.7 |
| 20260902075333 | 76 | 138 | 0.0 | 0.0 | 0.00 | 0.00 | 0.00 | 73 | 1017.6 |
| 20260902075051 | 76 | 138 | 0.0 | 0.9 | 0.00 | 0.00 | 0.00 | 73 | 1014.7 |
| 20260902074852 | 76 | 138 | 0.0 | 1.7 | 0.00 | 0.00 | 0.00 | 72 | 1017.6 |
| 20260902074510 | 76 | 138 | 0.0 | 1.7 | 0.00 | 0.00 | 0.00 | 72 | 1014.7 |
| 20260902074328 | 77 | 137 | 0.0 | 1.7 | 0.00 | 0.00 | 0.00 | 72 | 1017.6 |
| 20260902074002 | 76 | 138 | 0.9 | 1.7 | 0.00 | 0.00 | 0.00 | 72 | 1014.6 |
| 20260902073824 | 77 | 138 | 1.7 | 1.7 | 0.00 | 0.00 | 0.00 | 72 | 1017.5 |
| 20260902073602 | 77 | 139 | 0.0 | 1.7 | 0.00 | 0.00 | 0.00 | 72 | 1014.7 |
| 20260902073322 | 77 | 139 | 0.0 | 1.7 | 0.00 | 0.00 | 0.00 | 72 | 1017.6 |
| 20260902073100 | 77 | 138 | 0.0 | 1.7 | 0.00 | 0.00 | 0.00 | 72 | 1014.7 |
| 20260902072839 | 77 | 138 | 0.0 | 1.7 | 0.00 | 0.00 | 0.00 | 72 | 1017.7 |
| 20260902072553 | 77 | 138 | 0.0 | 0.9 | 0.00 | 0.00 | 0.00 | 72 | 1014.6 |
| 20260902072350 | 77 | 138 | 0.0 | 0.0 | 0.00 | 0.00 | 0.00 | 71 | 1017.6 |
| 20260902072014 | 77 | 138 | 0.0 | 0.9 | 0.00 | 0.00 | 0.00 | 71 | 1014.7 |
| 20260902071846 | 77 | 138 | 0.0 | 0.9 | 0.00 | 0.00 | 0.00 | 71 | 1017.6 |
| 20260902071546 | 77 | 138 | 0.0 | 0.9 | 0.00 | 0.00 | 0.00 | 71 | 1014.7 |
| 20260902071321 | 77 | 138 | 0.0 | 1.7 | 0.00 | 0.00 | 0.00 | 71 | 1017.7 |
| 20260902071037 | 77 | 139 | 0.0 | 2.6 | 0.00 | 0.00 | 0.00 | 71 | 1014.7 |
| 20260902070838 | 78 | 138 | 0.0 | 2.6 | 0.00 | 0.00 | 0.00 | 71 | 1017.6 |
| 20260902070601 | 77 | 138 | 0.9 | 2.6 | 0.00 | 0.00 | 0.00 | 71 | 1014.8 |
| 20260902070315 | 78 | 138 | 1.7 | 2.6 | 0.00 | 0.00 | 0.00 | 71 | 1017.7 |
| 20260902070054 | 77 | 138 | 1.7 | 2.6 | 0.00 | 0.00 | 0.00 | 70 | 1014.7 |
| 20260902065833 | 78 | 138 | 1.7 | 2.6 | 0.00 | 0.00 | 0.00 | 70 | 1017.7 |
| 20260902065544 | 78 | 138 | 0.0 | 2.6 | 0.00 | 0.00 | 0.00 | 70 | 1014.7 |
| 20260902065350 | 78 | 138 | 0.0 | 2.6 | 0.00 | 0.00 | 0.00 | 69 | 1017.5 |
| 20260902065006 | 78 | 138 | 0.0 | 2.6 | 0.00 | 0.00 | 0.00 | 69 | 1014.6 |
| 20260902064829 | 78 | 138 | 0.9 | 2.6 | 0.00 | 0.00 | 0.00 | 69 | 1017.6 |
| 20260902064558 | 78 | 138 | 0.9 | 1.7 | 0.00 | 0.00 | 0.00 | 69 | 1014.8 |
| 20260902064326 | 79 | 138 | 0.0 | 0.9 | 0.00 | 0.00 | 0.00 | 69 | 1017.7 |